Home > Weather > Wittenberge > Past weeks

Flag for Germany Weather for the Past 2 Weeks in Wittenberge, Mecklenburg-Western Pomerania, Germany

Now
46 °F

Passing clouds.


Feels Like: 41 °F
Forecast: 40 / 58 °F
Wind: 10 mph from North

Location: Fassberg

Current Time: May 3, 2016 at 10:49:57 PM

Latest Report: May 3, 2016 at 9:20 PM


Visibility: N/A

Pressure: 30.24 "Hg

Humidity: 66%

Dew Point: 36 °F

Location of WittenbergeLocation

Historic Weather in Wittenberge — Graph

°F

Wittenberge Temperature Yesterday

Maximum temperature yesterday: 70 °F (at 4:20 PM)
Minimum temperature yesterday: 32 °F (at 6:20 AM)
Average temperature yesterday: 53 °F

High & Low Weather Summary for the Past Weeks

 TemperatureHumidityPressure
High70 °F (May 2, 4:20 PM)100% (Apr 22, 5:20 AM)30.42 "Hg (Apr 22, 5:20 AM)
Low27 °F (Apr 21, 5:20 AM)25% (May 2, 4:20 PM)29.39 "Hg (Apr 26, 1:20 PM)
Average43 °F72%29.96 "Hg
* Reported Apr 18 9:20 PM — May 3 9:20 PM, Wittenberge, Weather by CustomWeather, © 2016

Note: Actual official high and low records may vary slightly from our data, if they occured in-between our weather recording intervals... More about our weather records

Advertising

Wittenberge Weather History for the Previous 24 Hours

Scroll right to see more
 ConditionsComfort  
Time TempWeatherWind HumidityBarometerVisibility
9:20 PM
Tue, May 3
46 °FPassing clouds.10 mph66%30.24 "HgN/A
8:20 PM50 °FPassing clouds.12 mph58%30.21 "HgN/A
7:20 PM52 °FPassing clouds.13 mph58%30.18 "HgN/A
6:20 PM54 °FScattered clouds.18 mph54%30.15 "HgN/A
5:20 PM52 °FBroken clouds.5 mph77%30.15 "HgN/A
4:20 PM50 °FSprinkles. Broken clouds.10 mph71%30.15 "Hg5 mi
3:20 PM52 °FBroken clouds.6 mph77%30.12 "HgN/A
2:20 PM50 °FBroken clouds.6 mph82%30.12 "HgN/A
1:20 PM48 °FLight rain. Broken clouds.8 mph94%30.12 "HgN/A
12:20 PM48 °FLight rain. Broken clouds.10 mph87%30.09 "HgN/A
11:20 AM48 °FLight rain. Fog.16 mph87%30.07 "Hg3 mi
10:59 AM50 °FDrizzle. Fog.6 mph94%30.07 "Hg2 mi
10:20 AM52 °FLight rain. Partly sunny.7 mph77%30.07 "Hg6 mi
9:20 AM55 °FBroken clouds.6 mph67%30.04 "HgN/A
8:20 AM54 °FPartly sunny.2 mph67%30.04 "HgN/A
7:20 AM48 °FPartly sunny.2 mph76%30.04 "HgN/A
6:20 AM46 °FPartly cloudy.1 mph76%30.01 "HgN/A
5:20 AM48 °FPassing clouds.6 mph71%30.01 "HgN/A
4:20 AM48 °FPartly cloudy.6 mph71%30.01 "HgN/A
3:20 AM48 °FPassing clouds.6 mph66%30.04 "HgN/A
2:20 AM45 °FPassing clouds.2 mph76%30.04 "HgN/A
1:20 AM46 °FPassing clouds.2 mph71%30.07 "HgN/A
12:20 AM46 °FPassing clouds.5 mph71%30.07 "HgN/A
11:20 PM
Mon, May 2
50 °FPassing clouds.3 mph67%30.09 "HgN/A
10:20 PM52 °FPassing clouds.7 mph62%30.09 "HgN/A
Weather by CustomWeather, © 2016

See weather overviewHow to use our weather pages